Location: Grodzisko
(50.2308°N, 19.8265°E)
Time: 23:17:16
(UTC+00:00)

Daily predictions for brighter satellites

Satellite Brightness Start Highest point End
(mag) Time Altitude Azimuth Time Altitude Azimuth Time Altitude Azimuth
Timation 2 Rocket 4.0 16:38:23 10° NNW 16:44:55 85° ENE 16:51:07 10° SSE
CZ-2C R/B 4.2 16:41:02 10° N 16:46:15 43° WNW 16:51:30 10° SW
Cosmos 841 Rocket 3.6 16:41:48 10° NNW 16:47:00 85° WSW 16:52:09 10° SSE
Cosmos 1980 Rocket 2.2 16:42:01 10° SSW 16:47:37 70° ESE 16:53:13 10° NNE
CZ-4B R/B 3.4 16:42:54 10° SE 16:48:07 53° ENE 16:53:29 10° N
PSLV R/B 3.6 16:44:34 10° SSE 16:48:11 63° ENE 16:51:50 10° N
Cosmos 1726 2.6 16:46:23 10° SSE 16:49:45 37° E 16:53:09 10° NNE
CZ-4 R/B 4.4 16:46:27 10° SSE 16:50:33 81° ENE 16:54:41 10° NNW
DMSP B5D2-2 4.1 16:45:43 10° NNE 16:51:00 68° ESE 16:56:15 10° S
ARGOS Delta rocket 4.4 16:46:21 10° NNE 16:51:22 42° E 16:56:06 10° SSE
USA 186 3.9 16:49:58 10° E 16:51:24 12° ENE 16:52:50 10° NE
Cosmos 1378 Rocket 3.6 16:47:17 10° N 16:51:37 58° ENE 16:55:54 10° SSE
Cosmos 1470 4.3 16:51:22 10° ESE 16:53:38 15° E 16:55:54 10° NE
USA 215 3.3 16:51:45 10° ENE 16:58:19 78° SE 17:04:52 10° SW
Cosmos 2279 Rocket 4.3 16:56:15 10° NNW 17:02:31 77° W 17:08:45 10° S
Cosmos 1850 Rocket 4.0 16:57:27 10° SSW 17:02:41 80° ESE 17:07:59 10° NNE
Cosmos 2369 3.8 16:59:23 10° SSW 17:05:07 85° WNW 17:10:52 10° NNE
Cosmos 1733 Rocket 3.1 17:01:20 10° S 17:05:46 87° WNW 17:10:15 10° N
Cosmos 1844 Rocket 3.5 17:01:23 10° NNW 17:06:34 34° NE 17:11:17 12° ESE
BREEZE-M DEB (TANK) 4.3 17:02:15 10° SW 17:06:48 57° SE 17:24:57 10° ENE
COBE Rocket 3.8 17:03:47 10° SSE 17:08:36 72° ENE 17:13:19 10° N
Cosmos 2221 Rocket 3.9 17:04:43 10° NNW 17:09:16 73° W 17:13:47 10° S
Cosmos 2278 3.7 17:05:20 10° SSW 17:10:54 60° ESE 17:16:31 10° NE
SL-16 R/B 2.9 17:07:01 10° SSE 17:11:57 32° ESE 17:16:55 10° NE
Cosmos 1570 Rocket 4.0 17:08:17 10° NNW 17:13:32 61° ENE 17:18:42 10° SE
PAYLOAD B 4.5 17:08:23 10° S 17:13:53 75° WSW 17:19:25 10° NNW
Meteor 2-21 Rocket 4.5 17:13:18 10° S 17:19:11 56° E 17:25:05 10° NNE
BREEZE-M DEB (TANK) 3.7 17:18:10 10° W 17:20:06 26° SSW 17:23:02 10° SE
Cosmos 2278 Rocket 4.2 17:17:58 10° N 17:20:33 13° NNE 17:23:08 10° NE
Resurs 01 Rocket 3.5 17:23:45 13° ENE 17:24:27 14° NE 17:26:39 10° NNE
COSMO-SKYMED 1 3.3 17:20:20 10° N 17:24:38 58° WNW 17:28:53 10° SSW
Cosmos 2263 Rocket 3.0 17:20:21 10° NW 17:25:54 54° WSW 17:31:25 10° S
Meteor 1-24 Rocket 3.8 17:22:14 10° N 17:27:25 50° ENE 17:32:37 10° SSE
SJ-6B 3.6 17:26:36 20° ESE 17:28:23 29° ENE 17:31:43 10° N
Spot 1 4.0 17:25:55 10° NNE 17:30:09 84° WNW 17:34:14 10° SSW
ASTEX 1 4.0 17:25:50 10° N 17:30:45 61° W 17:35:40 10° SSW
H-2A R/B 4.1 17:30:44 15° ENE 17:30:49 15° ENE 17:33:05 10° NNE
Cosmos 1437 Rocket 2.8 17:27:19 10° S 17:30:56 48° E 17:34:33 10° NNE
HJ-1C 3.3 17:29:21 10° S 17:32:27 77° WSW 17:35:35 10° NNW
Meteor 2-16 Rocket 4.4 17:27:10 10° S 17:33:11 61° E 17:39:15 10° NNE
USA 267 3.9 17:28:34 10° SE 17:34:56 53° SW 17:41:20 10° WNW
Feng Yun 1-1 Rocket 4.1 17:29:49 10° SSE 17:35:17 77° ENE 17:40:42 10° NNW
IRIDIUM 104 4.3 17:30:52 10° S 17:36:05 89° E 17:41:21 10° N
Cosmos 1814 Rocket 4.4 17:32:06 10° NNW 17:37:19 64° WSW 17:42:26 10° S
SL-4 R/B 3.2 17:34:44 10° WNW 17:38:55 41° SSW 17:42:26 15° SSE
Cosmos 1844 4.0 17:35:39 10° NNW 17:41:02 47° NE 17:44:18 23° ESE
Cosmos 2084 Rocket 3.1 17:37:25 10° NW 17:41:15 79° NE 17:43:22 26° SE
Cosmos 2208 Rocket 4.0 17:36:43 10° NNW 17:42:08 81° ENE 17:47:34 10° SSE
Okean-O 3.0 17:42:56 23° SE 17:45:11 42° ENE 17:49:22 10° N
IRIDIUM 114 4.5 17:40:01 10° S 17:45:15 78° W 17:50:30 10° N
Meteor 1-22 Rocket 4.2 17:41:01 10° S 17:46:18 57° E 17:51:52 10° NNE
Cosmos 489 Rocket 4.5 17:41:08 10° SSW 17:47:29 89° WNW 17:53:51 10° NNE
CZ-4 R/B 1.6 17:43:51 10° S 17:48:01 74° WSW 17:52:13 10° NNW
Cosmos 1428 Rocket 4.5 17:42:18 10° S 17:48:21 59° E 17:54:30 10° NNE
ISS -0.9 17:46:58 10° WSW 17:48:22 12° SW 17:49:45 10° SSW
IGS 5A 3.7 17:48:12 26° SE 17:50:09 48° ENE 17:54:09 10° N
CSL-04 Debris 4.2 17:46:19 12° SSE 17:51:15 63° ENE 17:56:36 10° N
Cosmos 1627 Rocket 4.5 17:45:42 10° SSE 17:51:38 56° E 17:57:37 10° NNE
Meteor 1-12 Rocket 4.4 17:45:37 10° SSW 17:51:38 87° WNW 17:57:42 10° NNE
Cosmos 2195 Rocket 4.4 17:45:52 10° S 17:52:01 66° E 17:58:16 10° NNE
BREEZE M DEB (TANK) 3.4 17:47:34 10° SW 17:52:35 26° SSE 17:53:03 25° SSE
OBJECT-B 0.5 17:54:14 51° NNE 17:54:14 51° NNE 17:56:20 10° N
Cosmos 1908 Rocket 3.6 17:49:46 10° SSW 17:54:06 78° WNW 17:58:27 10° N
Cosmos 1300 Rocket 4.1 17:53:19 32° ESE 17:54:06 35° E 17:58:05 10° NNE
Cosmos 2360 Rocket 2.7 17:51:33 10° S 17:56:33 34° ESE 18:01:34 10° NE
USA 81 4.0 17:52:30 10° N 17:57:46 65° E 18:02:39 12° SSE
Cosmos 1782 Rocket 3.4 17:57:57 10° S 18:02:16 71° E 18:06:39 10° NNE
Cosmos 1025 Rocket 2.9 18:01:18 10° N 18:05:37 76° ENE 18:07:57 27° SSE
YAOGAN 1 4.1 18:02:26 10° SSW 18:06:26 36° W 18:10:28 10° NNW
Cosmos 2026 Rocket 3.8 18:02:17 10° S 18:08:17 72° E 18:14:22 10° NNE
Cosmos 968 Rocket 3.5 18:04:09 10° SSW 18:09:24 83° WNW 18:14:41 10° NNE
ATLAS 2AS CENTAUR R/B 4.1 18:03:20 10° NW 18:09:39 29° N 18:14:11 16° ENE
Okean O Rocket 2.9 18:06:07 10° SSW 18:10:14 40° W 18:14:24 10° NNW
Lacrosse 4 Rocket 1.5 18:10:18 10° SSW 18:13:55 52° SE 18:13:55 52° SE
Meteor 2-5 Rocket 4.1 18:09:47 10° NNW 18:15:15 64° W 18:20:43 10° S
CSL-04 Rocket 3.6 18:13:27 20° SSE 18:17:15 88° ENE 18:22:43 10° NNW
Cosmos 1553 Rocket 4.0 18:12:07 10° N 18:18:28 64° ENE 18:21:53 29° SSE
NOSS 3-4 (A) 4.2 18:15:27 10° NW 18:21:53 48° NE 18:24:38 34° E
NOSS 3-4 (C) 4.2 18:15:33 10° NW 18:21:58 48° NE 18:24:44 34° E
USA 186 2.3 18:22:41 51° SW 18:23:13 60° W 18:26:35 10° NNW
Cosmos 2322 Rocket 2.1 18:19:40 10° SSW 18:25:22 78° ESE 18:31:06 10° NNE
Cosmos 2237 4.1 18:20:16 10° SSW 18:25:58 80° ESE 18:31:42 10° NNE
Landsat 7 3.6 18:25:23 50° SSE 18:26:35 77° ENE 18:31:20 10° NNW
SPOT 1/Viking Rocket 3.8 18:27:16 46° ENE 18:27:32 47° ENE 18:32:27 10° N
Cosmos 1536 Rocket 4.4 18:24:27 10° N 18:27:34 35° NE 18:27:34 35° NE
deb Chang Zheng 4 3.6 18:29:32 57° NE 18:29:32 57° NE 18:33:14 10° N
Cosmos 1470 3.5 18:25:25 10° SSW 18:29:09 50° WNW 18:32:55 10° N
Cosmos 1975 Rocket 3.5 18:26:16 10° NNW 18:30:37 59° W 18:33:09 24° SSW
Cosmos 1980 Rocket 4.2 18:27:21 10° WSW 18:32:08 28° NW 18:36:55 10° NNE
NOSS 3-3 (A) 4.1 18:27:48 10° SSW 18:32:27 45° SE 18:32:27 45° SE
NOSS 3-3 (C) 4.1 18:27:54 10° SSW 18:32:21 43° SE 18:32:21 43° SE
Ariane Rocket 3.8 18:36:14 35° NE 18:36:14 35° NE 18:40:16 10° N
Cosmos 1758 4.3 18:40:19 38° N 18:40:19 38° N 18:42:54 10° N
USA 215 3.7 18:36:54 22° NE 18:41:14 57° NNW 18:47:36 10° W
USA 281 4.2 18:40:48 28° ENE 18:41:50 29° NE 18:47:19 10° NNW
Aureole 1 Rocket 4.0 18:36:01 10° S 18:43:08 56° ESE 18:48:49 10° NNE
IRS-1C Rocket 4.4 18:43:42 30° S 18:46:16 64° WSW 18:51:31 10° NNW
Cosmos 1844 Rocket 3.3 18:45:12 10° NW 18:50:42 53° WSW 18:52:59 33° S
Cosmos 2315 Rocket 4.4 18:47:18 10° N 18:53:05 46° ENE 18:53:05 46° ENE
Landsat 5 4.4 18:50:11 10° N 18:54:34 51° WNW 18:58:52 10° SW
SL-16 R/B 3.0 18:50:19 10° SW 18:55:50 52° NW 19:01:24 10° NNE
Cosmos 1943 Rocket 4.0 18:53:50 10° N 18:57:24 17° NNE 18:57:29 17° NE
Resurs 01 Rocket 2.2 19:01:19 53° N 19:01:19 53° N 19:04:44 10° NNW
Terra 3.9 19:03:49 17° NNE 19:03:49 17° NNE 19:05:21 10° N
H-2A R/B 3.7 19:07:12 36° NW 19:07:12 36° NW 19:09:38 10° NNW
Cosmos 2278 Rocket 3.0 19:01:04 10° NNW 19:05:42 37° NNE 19:05:42 37° NNE
MetOp-B 4.5 19:08:30 54° NNE 19:08:30 54° NNE 19:12:54 10° N
Gbstr 26 Del rocket 4.5 19:02:26 10° W 19:10:22 80° N 19:12:38 52° ENE
IRS-1A Rocket 4.2 19:15:26 85° WSW 19:15:27 85° WSW 19:21:19 10° NNW
Cosmos 2369 Rocket 4.4 19:13:39 10° N 19:16:12 13° NNE 19:17:02 13° NNE
Cosmos 921 Rocket 4.3 19:12:43 10° NNW 19:15:35 39° NNW 19:15:35 39° NNW
Cosmos 1375 Rocket 4.4 19:14:20 10° NW 19:20:49 76° NE 19:20:49 76° NE
Cosmos 2266 Rocket 4.0 19:26:59 72° NNE 19:26:59 72° NNE 19:32:41 10° N
Cosmos 1655 Rocket 4.2 19:28:46 60° NNE 19:28:46 60° NNE 19:33:53 10° NNE
S3M 4.1 19:23:28 10° NNW 19:29:39 67° W 19:30:10 64° WSW
Cosmos 2333 Rocket 4.3 19:36:34 17° NNE 19:36:34 17° NNE 19:37:45 10° NNE
Cosmos 2360 Rocket 3.0 19:34:56 10° SW 19:40:24 49° NW 19:45:53 10° NNE
Lacrosse 4 Rocket 4.2 19:49:44 10° W 19:50:17 13° W 19:50:17 13° W
ATLAS 2AS CENTAUR R/B 3.3 19:55:15 10° NW 20:01:35 48° NNE 20:01:35 48° NNE
Cosmos 2322 Rocket 4.2 20:05:19 10° W 20:10:02 26° NW 20:14:48 10° NNE
NOSS 3-4 (A) 4.2 20:06:18 10° NW 20:12:04 55° W 20:12:04 55° W
NOSS 3-4 (C) 4.2 20:06:25 10° NW 20:12:10 56° W 20:12:10 56° W
USA 215 3.9 20:24:15 49° N 20:24:15 49° N 20:30:00 10° WNW
USA 281 3.9 20:27:40 50° NW 20:27:40 50° NW 20:32:23 10° NNW
Terra 4.4 20:42:43 17° NNW 20:42:43 17° NNW 20:43:47 10° NNW
Cosmos 1943 Rocket 4.1 20:36:50 10° NNW 20:38:59 24° NNW 20:38:59 24° NNW
Cosmos 2278 Rocket 4.2 20:45:11 10° NW 20:47:32 24° NW 20:47:32 24° NW
Cosmos 2369 Rocket 4.4 20:56:42 10° NNW 20:58:48 21° N 20:58:48 21° N
Cosmos 2333 Rocket 4.5 21:18:31 20° NNW 21:18:31 20° NNW 21:21:33 10° NNE
Cosmos 1980 Rocket 4.4 23:47:31 10° N 23:51:09 20° NNE 23:51:09 20° NNE
